Date,TemperatureHighF,TemperatureAvgF,TemperatureLowF,DewpointHighF,DewpointAvgF,DewpointLowF,HumidityHigh,HumidityAvg,HumidityLow,PressureMaxIn,PressureMinIn,WindSpeedMaxMPH,WindSpeedAvgMPH,GustSpeedMaxMPH,PrecipitationSumIn
2013-3-1,48.4,41.1,32.1,31.9,29.1,27.3,83,63,44,29.96,29.88,16,3,16,0.00
2013-3-2,47.9,39.7,30.7,30.2,26.8,20.8,89,61,43,29.97,29.85,14,2,14,0.00
2013-3-3,46.2,36.2,28.3,23.7,20.9,18.5,74,55,38,30.03,29.89,18,3,18,0.00
2013-3-4,51.4,37.8,26.0,21.8,17.9,13.6,75,47,24,30.17,30.02,17,2,17,0.00
2013-3-5,49.7,44.6,38.6,45.4,34.1,18.2,96,70,38,30.13,29.60,18,3,18,0.33
2013-3-6,50.3,43.6,38.6,48.7,33.7,26.1,97,69,50,30.06,29.54,21,7,24,0.00
2013-3-7,52.2,42.7,35.1,32.6,29.9,26.8,79,61,45,30.28,30.06,16,4,16,0.00
2013-3-8,55.7,44.1,31.4,29.7,26.4,23.2,80,52,31,30.33,30.19,20,5,20,0.00
2013-3-9,63.2,49.0,36.2,31.6,28.4,26.4,70,47,26,30.38,30.27,13,3,13,0.00
2013-3-10,68.1,54.0,40.4,32.4,26.6,17.8,69,39,17,30.37,30.25,10,2,10,0.00
2013-3-11,68.8,56.5,41.7,54.7,44.7,25.4,88,66,37,30.29,29.97,18,3,18,0.00
2013-3-12,72.2,62.9,52.1,62.0,57.2,33.5,95,83,46,29.99,29.77,22,5,22,0.35
2013-3-13,57.4,48.3,37.6,34.0,27.8,20.3,83,47,26,30.17,29.96,30,5,30,0.00
2013-3-14,53.5,41.3,30.6,26.2,19.8,17.3,63,43,26,30.30,30.15,16,4,19,0.00
2013-3-15,62.1,48.2,31.4,35.9,27.7,20.5,73,46,32,30.24,29.95,21,4,21,0.00
2013-3-16,78.5,64.3,51.1,48.8,44.0,35.6,64,49,34,29.95,29.70,23,5,23,0.00
2013-3-17,67.1,54.7,42.2,53.1,44.5,38.1,94,71,43,30.20,29.86,25,7,25,0.00
2013-3-18,44.7,41.1,38.3,42.7,39.6,36.7,96,94,89,30.24,29.93,20,5,20,0.21
2013-3-19,67.7,52.4,41.5,48.2,35.6,14.9,97,63,20,30.05,29.86,25,4,25,0.02
2013-3-20,56.2,48.4,42.6,24.7,15.1,8.9,48,27,20,30.16,29.82,13,3,13,0.00
2013-3-21,45.9,40.6,31.9,31.3,20.0,11.7,72,45,28,30.02,29.76,16,5,19,0.00
2013-3-22,52.4,34.1,25.9,23.1,14.8,12.3,65,46,23,30.14,30.02,21,3,21,0.00
2013-3-23,56.1,46.7,41.0,32.1,25.7,21.0,63,44,33,30.10,29.95,8,2,8,0.00
2013-3-24,44.1,39.9,36.4,38.6,35.1,29.3,94,84,62,29.99,29.60,25,6,25,0.36
2013-3-25,47.6,41.0,36.3,37.9,31.2,23.3,96,72,40,29.87,29.60,21,5,23,0.00
2013-3-26,49.1,42.4,35.1,30.0,27.7,25.5,72,56,45,30.16,29.87,16,4,16,0.00
2013-3-27,52.7,42.7,33.5,29.2,25.4,21.1,79,53,31,30.28,30.16,22,4,22,0.00
2013-3-28,56.8,44.4,32.0,29.3,25.4,23.7,77,50,29,30.34,30.20,15,4,15,0.00
2013-3-29,60.2,45.8,34.0,31.5,27.0,24.0,83,51,26,30.38,30.23,13,2,20,0.00
2013-3-30,65.0,55.4,45.7,45.3,37.8,28.5,72,52,40,30.28,30.13,7,2,7,0.00
2013-3-31,68.8,57.5,48.1,56.7,50.9,42.4,95,79,63,30.15,29.84,23,4,23,0.30